This demonstration page uses our WeatherBlox Daily Observations layout. Learn more.

Left ArrowRight Arrow

39.12711, -84.51439

Hourly Observations for March 5, 2021

Temp ( °F °C ) Dew Point ( °F °C ) Humidity (%) Winds ( mph kmh ) Pressure ( in mb ) Visibility ( mi km ) Precip ( " mm )
12:53 am 00:53 Clear 30 -1.1 19 -7.2 64 64 NNE 7 11 30.29 1026 10 16.0934 0 0
1:53 am 01:53 Clear 30 -1.1 20 -6.7 66 66 NNE 9 15 30.3 1026 10 16.0934 0 0
2:53 am 02:53 Clear 28 -2.2 20 -6.7 72 72 NNE 8 13 30.31 1026 10 16.0934 0 0
3:53 am 03:53 Clear 28 -2.2 20 -6.7 72 72 NNE 7 11 30.32 1027 10 16.0934 0 0
4:53 am 04:53 Clear 26 -3.3 20 -6.7 78 78 N 6 9 30.33 1027 10 16.0934 0 0
5:53 am 05:53 Clear 27 -2.8 20 -6.7 75 75 N 3 6 30.34 1027 10 16.0934 0 0
6:53 am 06:53 Clear 27 -2.8 20 -6.7 75 75 N 3 6 30.35 1028 10 16.0934 0 0
7:53 am 07:53 Sunny 27 -2.8 20 -6.7 75 75 N 5 7 30.35 1028 10 16.0934 0 0
8:53 am 08:53 Sunny 31 -0.6 21 -6.1 67 67 Calm 30.37 1029 10 16.0934 0 0
9:53 am 09:53 Sunny 33 0.6 19 -7.2 56 56 Calm 30.37 1028 10 16.0934 0 0
10:53 am 10:53 Sunny 37 2.8 15 -9.4 41 41 N 7 11 30.37 1029 10 16.0934 0 0
11:53 am 11:53 Sunny 40 4.4 13 -10.6 33 33 NNE 6 9 30.36 1028 10 16.0934 0 0
12:53 pm 12:53 Sunny 43 6.1 16 -8.9 34 34 NNE 5 7 30.34 1028 10 16.0934 0 0
1:53 pm 13:53 Sunny 45 7.2 16 -8.9 31 31 NNW 7 11 30.3 1026 10 16.0934 0 0
2:53 pm 14:53 Sunny 48 8.9 18 -7.8 30 30 NNW 12 19 30.28 1025 10 16.0934 0 0
3:53 pm 15:53 Sunny 49 9.4 20 -6.7 32 32 N 12 19 30.28 1025 10 16.0934 0 0
4:53 pm 16:53 Sunny 47 8.3 18 -7.8 31 31 NNE 12 19 30.27 1025 10 16.0934 0 0
5:53 pm 17:53 Sunny 46 7.8 18 -7.8 32 32 N 9 15 30.27 1025 10 16.0934 0 0
6:53 pm 18:53 Clear 42 5.6 18 -7.8 38 38 N 7 11 30.28 1025 10 16.0934 0 0
7:53 pm 19:53 Clear 41 5 19 -7.2 41 41 Calm 30.27 1025 10 16.0934 0 0
8:53 pm 20:53 Clear 36 2.2 23 -5 59 59 Calm 30.28 1026 10 16.0934 0 0
9:53 pm 21:53 Clear 39 3.9 20 -6.7 46 46 W 3 6 30.29 1026 10 16.0934 0 0
10:53 pm 22:53 Clear 37 2.8 24 -4.4 59 59 WNW 9 15 30.29 1026 10 16.0934 0 0
11:53 pm 23:53 Clear 37 2.8 21 -6.1 52 52 NW 7 11 30.29 1026 10 16.0934 0 0

Powered by AerisWeather